Regional Weather Roundup
Issued by NWS

Home | Current Version | Previous Version | Graphics & Text | Print | Product List | Glossary On
Versions: 1 2 3 4 5 6 7 8 9 10 11 12 13 14 15 16 17 18 19 20 21 22 23 24 25 26 27 28 29 30 31 32 33 34 35 36 37 38 39 40 41 42 43 44 45 46 47 48 49 50
000
ASUS45 KCYS 081110
RWRWY

WYOMING REGIONAL WEATHER ROUNDUP
NATIONAL WEATHER SERVICE CHEYENNE WY
400 AM MST THU DEC 08 2016

NOTE:  "FAIR" INDICATES FEW OR NO CLOUDS BELOW 12,000 FEET
WITH NO SIGNIFICANT WEATHER AND/OR OBSTRUCTIONS TO VISIBILITY.

WYZ001-081200-
YELLOWSTONE NATIONAL PARK

CITY           SKY/WX    TMP DP  RH WIND       PRES   REMARKS
LK YELLOWSTONE   N/A    -12 -15  86 NW3       30.16S
W YELLOWSTONE  NOT AVBL

$$
WYZ002>013-054>058-071-098>099-081200-
NORTHERN WYOMING

CITY           SKY/WX    TMP DP  RH WIND       PRES   REMARKS
JACKSON        FAIR     -17 -20  83 N5        30.28S WCI -29
CODY           FAIR      -9 -13  83 S7        30.36F WCI -24
GREYBULL       FAIR      -4  -9  79 S3        30.47F
WORLAND        FAIR      -7 -12  79 CALM      30.44S
SHERIDAN       FAIR     -11 -17  75 S5        30.47F WCI -23
BUFFALO        FAIR      -1 -13  56 SW8       30.37F WCI -15
GILLETTE       FAIR     -14 -17  87 S3        30.44F
HULETT         FAIR      -8 -11  84 S8        30.46S WCI -23
NEWCASTLE      FAIR      -9 -15  77 NW5       30.47S WCI -21

$$
WYZ014>020-022>026-101>103-081200-
CENTRAL WYOMING

CITY           SKY/WX    TMP DP  RH WIND       PRES   REMARKS
BIG PINEY      FAIR     -19 -24  77 NE3       30.24F
PINEDALE       FAIR     -22 -27  76 W12       30.24F WCI -45
DUBOIS         FAIR     -11 -17  77 NW8       30.16F WCI -28
LANDER         FAIR      -3 -10  72 CALM      30.30F
RIVERTON       FAIR      -3  -7  82 CALM      30.32F
CASPER         FAIR     -30  32 100 CALM      30.36F
DOUGLAS        FAIR     -19 -25  73 CALM      30.42S

$$
WYZ021-027>030-104>119-081200-
SOUTHERN WYOMING

CITY           SKY/WX    TMP DP  RH WIND       PRES   REMARKS
EVANSTON       FAIR       2  -8  63 E5        30.18S WCI  -8
KEMMERER         N/A     -8 -13  77 N12       30.18F WCI -27
FORT BRIDGER   FAIR      -1  -5  84 CALM      30.23F
ROCK SPRINGS   FAIR      -5  -9  83 E3        30.23F
DIXON          FAIR      -1 -10  67 E8        30.29F WCI -16
RAWLINS        FAIR     -16 -22  74 CALM      30.24S
SARATOGA       FAIR      -4  -9  77 SE7       30.24S WCI -18
LARAMIE        FAIR     -21 -26  77 SW5       30.19F WCI -34
CHEYENNE       FAIR     -14 -19  79 W8        30.30F WCI -31
TORRINGTON     FAIR      -8 -15  71 NW3       30.47F
PINE BLUFFS    FAIR     -15 -20  76 MISG      30.41S

$$



USA.gov is the U.S. government's official web portal to all federal, state and local government web resources and services.